Flag for Australia Weather past 2 weeks in Perth, Western Australia, Australia

Now
55 °F

Clear.


Feels Like: 55 °F
Forecast: 61 / 83 °F
Wind: 2 mph from Northeast

Location: Belmont Perth Airport

Current Time: Mar 29, 2015 at 3:03:32 AM

Latest Report: Mar 29, 2015 at 2:00 AM


Visibility: 10 mi

Pressure: 30.09 "Hg

Humidity: 94%

Dew point: 54 °F

Location of PerthLocation

Historic Weather in Perth — Graph

°F

Perth temperature yesterday

Maximum temperature yesterday: 81 °F (at 12:30 PM)
Minimum temperature yesterday: 52 °F (at 5:30 AM)
Average temperature yesterday: 66 °F

Past Weeks' High & Low Weather Summary

 TemperatureHumidityPressure
High90 °F (Mar 14, 11:30 AM)100% (Mar 15, 4:00 AM)30.42 "Hg (Mar 15, 4:00 AM)
Low52 °F (Mar 28, 5:30 AM)16% (Mar 25, 4:30 PM)29.59 "Hg (Mar 14, 12:48 PM)
Average70 °F61%30.02 "Hg
* Reported Mar 14 2:00 AM — Mar 29 2:00 AM, Perth, Weather by CustomWeather, © 2015

Note: Actual official high and low records may vary slightly from our data, if they occured in-between our weather recording intervals... More about our weather records

Advertising

Perth weather history for previous 24 hours

 ConditionsComfort  
Time TempWeatherWind HumidityBarometerVisibility
2:00 AM
Sun, Mar 29
55 °FClear.2 mph94%30.09 "Hg10 mi
1:00 AM55 °FClear.5 mph94%30.09 "Hg10 mi
12:30 AM57 °FClear.1 mph94%30.09 "Hg10 mi
12:00 AM57 °FClear.5 mph94%30.12 "Hg10 mi
11:30 PM
Sat, Mar 28
59 °FClear.6 mph88%30.12 "Hg10 mi
11:00 PM61 °FClear.6 mph83%30.12 "Hg10 mi
10:30 PM63 °FClear.8 mph83%30.12 "Hg10 mi
10:00 PM66 °FClear.9 mph73%30.12 "Hg10 mi
9:30 PM66 °FClear.9 mph73%30.12 "Hg10 mi
9:00 PM68 °FClear.13 mph69%30.12 "Hg10 mi
8:30 PM68 °FClear.10 mph69%30.12 "Hg10 mi
8:00 PM68 °FClear.9 mph69%30.12 "Hg10 mi
7:30 PM70 °FClear.10 mph64%30.09 "Hg10 mi
7:00 PM70 °FClear.10 mph60%30.09 "Hg10 mi
6:30 PM70 °FClear.14 mph57%30.09 "Hg10 mi
6:00 PM72 °FClear.13 mph53%30.07 "Hg10 mi
5:30 PM73 °FClear.15 mph50%30.07 "Hg10 mi
5:00 PM75 °FSunny.16 mph44%30.07 "Hg10 mi
4:30 PM77 °FSunny.16 mph44%30.07 "Hg10 mi
4:00 PM77 °FSunny.15 mph44%30.07 "Hg10 mi
3:30 PM77 °FSunny.15 mph44%30.07 "Hg10 mi
3:00 PM79 °FSunny.15 mph45%30.07 "Hg10 mi
2:00 PM79 °FSunny.15 mph48%30.07 "Hg10 mi
1:00 PM81 °FSunny.14 mph42%30.09 "Hg10 mi
12:30 PM81 °FSunny.7 mph34%30.09 "Hg10 mi
12:00 PM79 °FSunny.7 mph39%30.09 "Hg10 mi
11:30 AM77 °FSunny.3 mph44%30.12 "Hg10 mi
11:00 AM75 °FPassing clouds.6 mph47%30.12 "HgN/A
10:30 AM73 °FPassing clouds.6 mph50%30.15 "HgN/A
10:00 AM72 °FSunny.7 mph57%30.15 "Hg10 mi
9:30 AM72 °FSunny.9 mph57%30.15 "Hg10 mi
9:00 AM70 °FSunny.8 mph69%30.15 "Hg10 mi
8:30 AM66 °FSunny.7 mph68%30.15 "Hg10 mi
8:00 AM63 °FSunny.5 mph77%30.15 "Hg10 mi
7:30 AM59 °FSunny.2 mph88%30.15 "Hg10 mi
7:00 AM54 °FSunny.1 mph94%30.12 "Hg10 mi
6:30 AM52 °FSunny.No wind100%30.12 "Hg10 mi
6:00 AM52 °FSunny.1 mph94%30.12 "Hg10 mi
5:30 AM52 °FSunny.No wind94%30.09 "Hg10 mi
5:00 AM54 °FClear.No wind94%30.09 "Hg10 mi
4:00 AM54 °FClear.5 mph94%30.09 "Hg10 mi
3:30 AM55 °FClear.No wind94%30.09 "Hg10 mi
3:00 AM55 °FClear.5 mph94%30.07 "Hg10 mi
Weather by CustomWeather, © 2015

See weather overviewHow to use our weather pages